CZ-6A DEB, 55523

Orbit data source: Space-Track

CZ-6A DEB, 55523 is space debris in SSO originally from a launch on Fri, 11 Nov 2022 UTC launched from the Taiyaun Space Center, China (TSC). Debris objects in space refer to the collection of defunct objects orbiting the Earth. Examples of debris include non-operational satellites, rocket bodies, and fragments generated from explosions, collisions, or faulty payload assembly.

Loading next visibility...
Identifier
55523, 2022-151XV
Orbit
SSO
Country
Flag of CNCN / PRC
Related business
Manufacturer
SAST
Mission
Spacecraft
Bus & Motor
Unknown
Mass
Unknown
Launch date (UTC)
2022-11-11 (4 years ago)
Launch vehicle
Unknown
Launch site
Taiyaun Space Center, China (TSC)
Object type
Payload
Rocket body
Debris
Shape & HBR
Unknown shape, 0.1 m
Radar Cross Section
Small (<0.1 m²)

Expand to show TLE details & history
Last TLE update: 2 days ago

TLE from 2 days ago
0 CZ-6A DEB
1 55523U 22151XV  26170.94705627  .00002984  00000-0  13090-2 0  9995
2 55523  98.8251 181.6535 0046857 275.2827  84.3006 14.23803054180670
Epoch: 2026-06-19T22:43Z
TLE epoch observation values (Epoch: 2026-06-19T22:43:45.661Z)
Latitude
-0°
Longitude
-67.45548°
Altitude
812.245 km
Speed
7.449 km/s
True Right ascension
12h 06m 36s
True Declination
0° 00' 00"
Sunlit
Object was in daylight at epoch
Visualization orbit readout
Latitude
Unknown
Longitude
Unknown
Altitude
Unknown
Speed
Unknown
Apparent Right ascension
Unknown
Apparent Declination
Unknown
Sunlit
N/A
Visualization observer readout
Local Sidereal Time
21:30:05
Azimuth
Unknown
Elevation
Unknown
Doppler factor
Unknown
Orbital elements
Apogee altitude
843.359 km
Perigee altitude
775.999 km
Semi-major axis
7,187.816 km
Eccentricity
0.00469
Inclination
98.8251°
RAAN
181.6535°
Arg. of periapsis
275.2827°
True anomaly
84.83519°
Mean anomaly
84.3006°
Eccentric anomaly
84.56787°
Mean motion
3.56162 °/min
Orbital period
101.08 mins
BSTAR
0.001309
Loading maneuver chart data...
Computing Atmospheric mass density...
Loading historical data...
Loading historical data...
Loading historical data...
Loading historical data...
Loading historical data...
Loading historical data...
Loading historical data...

Documentation

Showing up to 5 results
|